User: anonymous   Login
Location: Unspecified
(0.0000°N, 0.0000°E)
Time: 14:49:23
(UTC+00:00)
Language:

COSMOS-2414 - Orbit

View from above orbital plane
View from above orbital plane
View from above satellite
View from above satellite

Ground track
Ground track

The orbit data is extracted from the following two-line orbital elements,

1 28521U 05002A   17206.21012728 +.00000042 +00000-0 +22317-4 0  9999
2 28521 082.9509 340.0671 0039068 230.0371 129.7360 13.87588373633559
Epoch (UTC): 25 July 2017 05:02:34
Eccentricity: 0.0039068
inclination: 82.9509°
perigee height: 908 km
apogee height: 965 km
right ascension of ascending node: 340.0671°
argument of perigee: 230.0371°
revolutions per day: 13.87588373
mean anomaly at epoch: 129.7360°
orbit number at epoch: 63355

The dashed part of the orbit path shows where the satellite is in the earth's shadow,  

DLR